This demonstration page uses our WeatherBlox Daily Observations layout. Learn more.

Left ArrowRight Arrow

39.01783, -85.05884

Hourly Observations for August 20, 2020

Temp ( °F °C ) Dew Point ( °F °C ) Humidity (%) Winds ( mph kmh ) Pressure ( in mb ) Visibility ( mi km ) Precip ( " mm )
12:52 am 00:52 Clear 68 20 54 12.2 61 61 NE 7 11 30.03 1017 10 16.0934 0 0
1:52 am 01:52 Clear 65 18.3 55 12.8 70 70 ENE 7 11 30.03 1017 10 16.0934 0 0
2:52 am 02:52 Clear 65 18.3 55 12.8 70 70 ENE 7 11 30.02 1017 10 16.0934 0 0
3:52 am 03:52 Clear 62 16.7 55 12.8 78 78 E 5 7 30.02 1017 10 16.0934 0 0
4:52 am 04:52 Clear 62 16.7 54 12.2 75 75 ENE 7 11 30.02 1017 10 16.0934 0 0
5:52 am 05:52 Clear 62 16.7 54 12.2 75 75 N 5 7 30.02 1017 10 16.0934 0 0
6:52 am 06:52 Mostly Clear 61 16.1 54 12.2 78 78 NNE 6 9 30.02 1017 10 16.0934 0 0
7:52 am 07:52 Mostly Sunny 63 17.2 54 12.2 73 73 NE 6 9 30.02 1017 10 16.0934 0 0
8:52 am 08:52 Sunny 67 19.4 53 11.7 61 61 NE 7 11 30.04 1017 10 16.0934 0 0
9:52 am 09:52 Mostly Sunny 70 21.1 53 11.7 55 55 NE 6 9 30.03 1017 10 16.0934 0 0
10:52 am 10:52 Partly Cloudy 74 23.3 53 11.7 48 48 NE 9 15 30.04 1017 10 16.0934 0 0
11:52 am 11:52 Partly Cloudy 76 24.4 53 11.7 45 45 ENE 10 17 30.04 1017 10 16.0934 0 0
12:52 pm 12:52 Partly Cloudy 78 25.6 54 12.2 43 43 NNE 6 9 30.02 1017 10 16.0934 0 0
1:52 pm 13:52 Mostly Cloudy 78 25.6 52 11.1 40 40 E 5 7 30 1016 10 16.0934 0 0
2:52 pm 14:52 Mostly Sunny 80 26.7 52 11.1 38 38 VRB 6 9 29.98 1015 10 16.0934 0 0
3:52 pm 15:52 Mostly Sunny 81 27.2 52 11.1 37 37 E 8 13 29.96 1015 10 16.0934 0 0
4:52 pm 16:52 Mostly Sunny 81 27.2 51 10.6 35 35 ENE 6 9 29.93 1014 10 16.0934 0 0
5:52 pm 17:52 Mostly Sunny 81 27.2 52 11.1 37 37 ENE 6 9 29.92 1013 10 16.0934 0 0
6:52 pm 18:52 Mostly Sunny 79 26.1 53 11.7 41 41 E 7 11 29.91 1013 10 16.0934 0 0
7:52 pm 19:52 Partly Cloudy 76 24.4 54 12.2 47 47 ESE 8 13 29.93 1013 10 16.0934 0 0
8:52 pm 20:52 Partly Cloudy 73 22.8 55 12.8 53 53 E 7 11 29.93 1014 10 16.0934 0 0
9:52 pm 21:52 Mostly Cloudy 72 22.2 56 13.3 57 57 E 7 11 29.95 1014 10 16.0934 0 0
10:52 pm 22:52 Mostly Cloudy 72 22.2 56 13.3 57 57 E 5 7 29.95 1014 10 16.0934 0 0
11:52 pm 23:52 Mostly Cloudy 72 22.2 55 12.8 55 55 Calm 29.94 1014 10 16.0934 0 0

Powered by AerisWeather